KD8BMB Weather Reports


Display with metric or nautical units.
time (UTC)temp
F
wind
direction
speed
MPH
gust
MPH
rain 1hr
in
rain 24hr
in
rain mn
in
humidity
%
barometer
mb
20260505072619 60 189 4.0 5.0 0.00 0.00 0.00 82 998.5
20260505072116 60 252 0.0 0.0 0.00 0.00 0.00 82 998.6
20260505071611 60 254 2.0 3.0 0.00 0.00 0.00 82 998.7
20260505071110 60 200 2.0 2.0 0.00 0.00 0.00 81 998.4
20260505070606 60 206 3.0 5.0 0.00 0.00 0.00 81 998.3
20260505065558 60 198 4.0 5.0 0.00 0.00 0.00 80 998.6
20260505065055 60 293 1.0 1.0 0.00 0.00 0.00 80 998.6
20260505064552 61 229 1.0 1.0 0.00 0.00 0.00 80 998.6
20260505064051 61 214 2.0 2.0 0.00 0.00 0.00 80 998.5
20260505063548 61 258 3.0 5.0 0.00 0.00 0.00 80 998.7
20260505063043 61 300 3.0 5.0 0.00 0.00 0.00 81 998.8
20260505062540 61 274 2.0 3.0 0.00 0.00 0.00 80 998.7
20260505062037 62 197 2.0 2.0 0.00 0.00 0.00 79 998.6
20260505061535 62 137 1.0 1.0 0.00 0.00 0.00 78 998.6
20260505061033 62 212 2.0 5.0 0.00 0.00 0.00 78 998.6
20260505060530 62 206 2.0 3.0 0.00 0.00 0.00 77 998.8
20260505060026 62 218 3.0 3.0 0.00 0.00 0.00 77 998.9
20260505055522 63 308 1.0 1.0 0.00 0.00 0.00 76 998.7
20260505055019 63 294 0.0 1.0 0.00 0.00 0.00 77 998.7
20260505054516 63 229 2.0 3.0 0.00 0.00 0.00 77 998.7
20260505054014 63 166 2.0 2.0 0.00 0.00 0.00 75 998.6
20260505053511 64 200 4.0 6.0 0.00 0.00 0.00 75 998.4
20260505053008 64 222 6.0 9.0 0.00 0.00 0.00 73 998.4
20260505052505 64 28 3.0 5.0 0.00 0.00 0.00 75 998.4
20260505052002 65 254 3.0 5.0 0.00 0.00 0.00 73 998.4
20260505051458 66 236 3.0 3.0 0.00 0.00 0.00 66 998.4
20260505050957 67 227 3.0 3.0 0.00 0.00 0.00 64 998.5
20260505050455 67 241 4.0 6.0 0.00 0.00 0.00 63 998.3
20260505041422 67 253 1.0 2.0 0.00 0.00 0.00 67 997.5
20260505040920 67 235 1.0 1.0 0.00 0.00 0.00 67 997.6
20260505040417 68 211 4.0 5.0 0.00 0.00 0.00 67 997.7
20260505035913 68 278 4.0 5.0 0.00 0.00 0.00 67 997.5
20260505035410 67 269 3.0 5.0 0.00 0.00 0.00 67 997.7
20260505034907 68 233 5.0 6.0 0.00 0.00 0.00 67 997.7
20260505034403 67 303 0.0 0.0 0.00 0.00 0.00 67 997.7
20260505033901 67 191 5.0 6.0 0.00 0.00 0.00 68 997.5
20260505033357 67 238 7.0 11.0 0.00 0.00 0.00 67 997.4
20260505032856 67 277 3.0 5.0 0.00 0.00 0.00 68 997.4
20260505032352 67 206 7.0 9.0 0.00 0.00 0.00 68 997.5
20260505031849 67 246 3.0 5.0 0.00 0.00 0.00 68 997.3
20260505031346 67 211 1.0 2.0 0.00 0.00 0.00 68 997.1
20260505030843 67 205 1.0 2.0 0.00 0.00 0.00 68 997.1
20260505030338 67 253 2.0 3.0 0.00 0.00 0.00 67 997.3
20260505025834 67 279 3.0 6.0 0.00 0.00 0.00 68 997.2
20260505025332 67 215 1.0 1.0 0.00 0.00 0.00 67 997.2
20260505024830 67 286 2.0 5.0 0.00 0.00 0.00 67 997.5
20260505024328 68 187 4.0 5.0 0.00 0.00 0.00 66 997.7
20260505023825 67 195 3.0 5.0 0.00 0.00 0.00 67 997.7
20260505023321 67 252 2.0 3.0 0.00 0.00 0.00 66 997.6
20260505022819 67 320 5.0 7.0 0.00 0.00 0.00 67 997.7
20260505022315 67 228 2.0 2.0 0.00 0.00 0.00 66 997.6
20260505021813 68 193 1.0 2.0 0.00 0.00 0.00 65 997.4
20260505021310 68 264 4.0 7.0 0.00 0.00 0.00 65 997.5
20260505020805 68 89 3.0 3.0 0.00 0.00 0.00 64 997.6
20260505020301 67 355 5.0 7.0 0.00 0.00 0.00 64 997.5
20260505015758 68 240 3.0 5.0 0.00 0.00 0.00 64 997.5
20260505015255 68 150 1.0 1.0 0.00 0.00 0.00 64 997.5
20260505014752 68 165 4.0 5.0 0.00 0.00 0.00 63 997.3
20260505014250 68 43 1.0 2.0 0.00 0.00 0.00 63 997.3
20260505013746 68 137 2.0 2.0 0.00 0.00 0.00 61 997.5
20260505013243 67 170 3.0 3.0 0.00 0.00 0.00 60 997.3
20260505012741 66 127 0.0 0.0 0.00 0.00 0.00 56 997.3
20260505012238 66 265 0.0 0.0 0.00 0.00 0.00 55 997.1
20260505011734 65 327 0.0 0.0 0.00 0.00 0.00 55 997.2
20260505011231 66 318 0.0 0.0 0.00 0.00 0.00 54 996.9
20260505010727 66 348 0.0 0.0 0.00 0.00 0.00 54 996.8
20260505010223 67 296 0.0 0.0 0.00 0.00 0.00 51 996.9
20260505005720 68 274 0.0 0.0 0.00 0.00 0.00 51 997.0
20260505005217 68 306 0.0 0.0 0.00 0.00 0.00 50 996.8
20260505004714 68 329 0.0 0.0 0.00 0.00 0.00 49 997.0
20260505004211 69 292 0.0 0.0 0.00 0.00 0.00 48 997.0
20260505003708 70 294 0.0 0.0 0.00 0.00 0.00 47 996.8
20260505003206 71 243 0.0 0.0 0.00 0.00 0.00 44 997.1
20260505002702 71 269 0.0 0.0 0.00 0.00 0.00 44 997.0
20260505002159 72 222 0.0 0.0 0.00 0.00 0.00 44 997.1
20260505001656 72 281 0.0 1.0 0.00 0.00 0.00 43 996.9
20260505001154 73 289 3.0 5.0 0.00 0.00 0.00 42 997.0
20260505000651 73 269 1.0 2.0 0.00 0.00 0.00 42 997.1
20260505000149 73 293 3.0 5.0 0.00 0.00 0.00 42 997.1
20260504235644 73 258 2.0 2.0 0.00 0.00 0.00 44 997.3
20260504235141 73 283 1.0 2.0 0.00 0.00 0.00 44 997.1
20260504234639 73 242 2.0 2.0 0.00 0.00 0.00 44 997.1
20260504234136 74 268 4.0 5.0 0.00 0.00 0.00 44 997.2
20260504233631 74 205 3.0 5.0 0.00 0.00 0.00 43 997.0
20260504233127 75 243 6.0 8.0 0.00 0.00 0.00 41 997.1
20260504232626 75 225 4.0 5.0 0.00 0.00 0.00 42 997.2
20260504232122 75 276 4.0 5.0 0.00 0.00 0.00 42 997.5
20260504231619 75 246 7.0 10.0 0.00 0.00 0.00 42 997.2
20260504231115 75 272 3.0 5.0 0.00 0.00 0.00 44 997.4
20260504230611 76 237 1.0 1.0 0.00 0.00 0.00 43 997.3
20260504230110 76 275 4.0 6.0 0.00 0.00 0.00 42 997.3
20260504225608 76 296 10.0 11.0 0.00 0.00 0.00 41 997.4
20260504225104 76 253 7.0 10.0 0.00 0.00 0.00 40 997.3
20260504224601 76 225 3.0 3.0 0.00 0.00 0.00 39 997.5
20260504224058 76 263 1.0 2.0 0.00 0.00 0.00 40 997.7
20260504223555 77 255 4.0 6.0 0.00 0.00 0.00 38 997.6
20260504223050 77 298 2.0 2.0 0.00 0.00 0.00 39 997.7
20260504222547 77 243 5.0 6.0 0.00 0.00 0.00 38 997.7
20260504222045 76 267 1.0 2.0 0.00 0.00 0.00 37 997.9
20260504221542 76 188 10.0 15.0 0.00 0.00 0.00 37 997.8
20260504221039 76 357 7.0 8.0 0.00 0.00 0.00 36 998.1
20260504220535 77 249 1.0 3.0 0.00 0.00 0.00 39 998.1
20260504220032 77 256 2.0 2.0 0.00 0.00 0.00 37 998.1
20260504215529 76 245 4.0 8.0 0.00 0.00 0.00 37 998.3
20260504215026 76 226 7.0 9.0 0.00 0.00 0.00 37 998.1
20260504214522 77 309 4.0 7.0 0.00 0.00 0.00 36 998.3
20260504214018 78 129 2.0 3.0 0.00 0.00 0.00 36 998.2
20260504213515 77 132 5.0 8.0 0.00 0.00 0.00 35 998.3
20260504213013 78 259 1.0 1.0 0.00 0.00 0.00 35 998.3
20260504212508 77 232 2.0 5.0 0.00 0.00 0.00 34 998.3
20260504212006 76 227 2.0 3.0 0.00 0.00 0.00 35 998.4
20260504211502 75 193 1.0 2.0 0.00 0.00 0.00 36 998.6
20260504211000 75 208 5.0 8.0 0.00 0.00 0.00 35 998.5
20260504210456 75 282 4.0 6.0 0.00 0.00 0.00 35 998.7
20260504205953 75 217 0.0 1.0 0.00 0.00 0.00 36 998.6
20260504205451 76 217 4.0 6.0 0.00 0.00 0.00 33 998.7
20260504204949 76 281 2.0 5.0 0.00 0.00 0.00 33 998.4
20260504204447 76 297 11.0 13.0 0.00 0.00 0.00 33 998.8
20260504203946 76 257 3.0 3.0 0.00 0.00 0.00 33 998.4
20260504203443 76 299 0.0 1.0 0.00 0.00 0.00 34 998.5
20260504202939 77 289 11.0 16.0 0.00 0.00 0.00 31 998.5
20260504202436 77 211 1.0 2.0 0.00 0.00 0.00 31 998.6
20260504201932 77 243 4.0 6.0 0.00 0.00 0.00 31 998.6
20260504201430 76 238 5.0 8.0 0.00 0.00 0.00 31 998.5
20260504200927 77 219 5.0 8.0 0.00 0.00 0.00 32 998.6
20260504200424 76 283 10.0 14.0 0.00 0.00 0.00 31 998.8
20260504195921 76 280 0.0 1.0 0.00 0.00 0.00 32 998.9
20260504195416 76 140 10.0 14.0 0.00 0.00 0.00 30 998.7
20260504194913 76 220 4.0 6.0 0.00 0.00 0.00 32 999.0
20260504194409 76 274 1.0 3.0 0.00 0.00 0.00 31 999.1
20260504193905 75 293 3.0 5.0 0.00 0.00 0.00 32 998.9
20260504193403 76 231 6.0 8.0 0.00 0.00 0.00 31 999.6
20260504192901 76 245 12.0 14.0 0.00 0.00 0.00 30 999.0
20260504192358 76 311 5.0 9.0 0.00 0.00 0.00 31 999.1
20260504191857 76 320 11.0 15.0 0.00 0.00 0.00 30 999.4
20260504191354 76 303 4.0 8.0 0.00 0.00 0.00 31 999.2
20260504190849 76 294 6.0 10.0 0.00 0.00 0.00 31 999.4
20260504190346 76 226 3.0 8.0 0.00 0.00 0.00 31 999.4
20260504185842 76 240 5.0 7.0 0.00 0.00 0.00 31 999.4
20260504185339 76 237 5.0 7.0 0.00 0.00 0.00 32 999.5
20260504184835 77 317 0.0 0.0 0.00 0.00 0.00 32 999.6
20260504184332 77 188 3.0 5.0 0.00 0.00 0.00 32 999.5
20260504183827 76 215 1.0 5.0 0.00 0.00 0.00 32 999.7
20260504183325 75 187 8.0 11.0 0.00 0.00 0.00 32 1000.0
20260504182822 76 302 6.0 8.0 0.00 0.00 0.00 31 999.9
20260504182320 75 237 7.0 11.0 0.00 0.00 0.00 31 999.8
20260504181817 75 210 13.0 17.0 0.00 0.00 0.00 31 999.7
20260504181314 75 257 5.0 14.0 0.00 0.00 0.00 32 999.8
20260504180812 75 256 6.0 9.0 0.00 0.00 0.00 34 1000.3
20260504180305 75 260 3.0 6.0 0.00 0.00 0.00 34 1000.2
20260504175803 74 306 7.0 9.0 0.00 0.00 0.00 33 1000.1
20260504175259 74 254 7.0 10.0 0.00 0.00 0.00 33 1000.3
20260504174758 74 216 8.0 10.0 0.00 0.00 0.00 32 1000.1
20260504174255 74 279 10.0 13.0 0.00 0.00 0.00 33 1000.3
20260504173751 74 201 9.0 15.0 0.00 0.00 0.00 33 1000.4
20260504173248 74 247 2.0 3.0 0.00 0.00 0.00 33 1000.6
20260504172745 75 226 5.0 7.0 0.00 0.00 0.00 33 1000.6
20260504172242 75 70 0.0 0.0 0.00 0.00 0.00 34 1000.4
20260504171738 74 165 3.0 5.0 0.00 0.00 0.00 36 1000.8
20260504171235 74 252 7.0 10.0 0.00 0.00 0.00 34 1000.8
20260504170732 74 206 4.0 5.0 0.00 0.00 0.00 39 1000.8
20260504170229 74 225 3.0 3.0 0.00 0.00 0.00 38 1000.9
20260504160148 70 258 1.0 1.0 0.00 0.00 0.00 47 1002.0
20260504151115 67 251 0.0 1.0 0.00 0.00 0.00 57 1002.7
20260504150613 66 184 2.0 5.0 0.00 0.00 0.00 59 1002.9
20260504150110 66 280 5.0 7.0 0.00 0.00 0.00 58 1002.9
20260504141038 62 205 2.0 2.0 0.00 0.00 0.00 63 1003.4
20260504140535 62 262 1.0 2.0 0.00 0.00 0.00 65 1003.2
20260504130459 58 317 2.0 2.0 0.00 0.00 0.00 70 1003.5
20260504110346 48 293 1.0 1.0 0.00 0.00 0.00 86 1003.6
20260504100304 47 229 0.0 0.0 0.00 0.00 0.00 86 1004.0
20260504081657 49 313 0.0 0.0 0.00 0.00 0.00 81 1004.5
20260504081153 49 199 1.0 1.0 0.00 0.00 0.00 81 1004.7
20260504080650 49 188 0.0 0.0 0.00 0.00 0.00 80 1004.4
20260504080146 49 269 0.0 0.0 0.00 0.00 0.00 80 1004.6